This is the latest recevied weather packets stored in our database for station/object KJ4UBX-11. If no packets are shown the sender has not sent any weather packets the latest 10 day(s).
| Time | Temp. | Humidity | Pressure | Rain* | Wind** | Luminosity | Snow |
|---|---|---|---|---|---|---|---|
| 1777664793 | 20.56° C | 37% | 1005.8 hPa | - | - | - | - |
| 1777664208 | 20° C | 42% | 1005.8 hPa | - | - | - | - |
| 1777663627 | 20.56° C | 32% | 1005.8 hPa | - | - | - | - |
| 1777663042 | 20.56° C | 44% | 1005.7 hPa | - | - | - | - |
| 1777662460 | 20° C | 42% | 1005.9 hPa | - | - | - | - |
| 1777661878 | 21.11° C | 42% | 1006 hPa | - | - | - | - |
| 1777661297 | 21.67° C | 35% | 1005.9 hPa | - | - | - | - |
| 1777660714 | 21.67° C | 36% | 1005.8 hPa | - | - | - | - |
| 1777660131 | 22.22° C | 37% | 1005.9 hPa | - | - | - | - |
| 1777659548 | 21.67° C | 36% | 1005.8 hPa | - | - | - | - |
| 1777658965 | 21.67° C | 36% | 1005.9 hPa | - | - | - | - |
| 1777658381 | 21.67° C | 36% | 1006 hPa | - | - | - | - |
| 1777657796 | 21.11° C | 40% | 1005.9 hPa | - | - | - | - |
| 1777657212 | 22.22° C | 34% | 1005.9 hPa | - | - | - | - |
| 1777656628 | 21.11° C | 37% | 1006 hPa | - | - | - | - |
| 1777656043 | 20.56° C | 39% | 1006.1 hPa | - | - | - | - |
| 1777655462 | 21.11° C | 36% | 1006.1 hPa | - | - | - | - |
| 1777654880 | 21.11° C | 36% | 1006.2 hPa | - | - | - | - |
| 1777654298 | 22.78° C | 39% | 1006.2 hPa | - | - | - | - |
| 1777653714 | 22.22° C | 37% | 1006.2 hPa | - | - | - | - |
| 1777653133 | 22.78° C | 32% | 1006.4 hPa | - | - | - | - |
| 1777652550 | 23.33° C | 32% | 1006.5 hPa | - | - | - | - |
| 1777651967 | 23.89° C | 33% | 1006.5 hPa | - | - | - | - |
| 1777651386 | 25.56° C | 31% | 1006.6 hPa | - | - | - | - |
| 1777650804 | 26.11° C | 24% | 1006.6 hPa | - | - | - | - |
* Rain since midnight (hover to see other rain measurements)
** Current wind speed in m/s (hover to see current wind gust speed)